OpenBCM V1.13 (Linux)

Packet Radio Mailbox

DB0FHN

[JN59NK Nuernberg]

 Login: GUEST





  
I0OJJ  > KEPS     22.01.25 07:40l 328 Lines 15576 Bytes #999 (0) @ AMSAT
BID : ORB25022.1
Read: DL5MBW DJ6UX GUEST
Subj: 2Line Orbital Elements 25022.AMSAT
Path: DB0FHN<OE2XZR<OE6XPE<DB0ERF<DK0WUE<DK0WUE<VK5RSV<PI8ZTM<I0OJJ
Sent: 250122/0535z @:I0OJJ.ITA.EU [Rome] obcm1.08-6-g5b69
From: I0OJJ @ I0OJJ.ITA.EU (Gustavo)
To:   KEPS @ AMSAT
X-Info: This message was generated automatically


QST de W1STR

AMSAT Orbital Elements for Amateur Satellites in TLE Format
From Orbital Analysis Office
New England Sci-Tech STEM Education Center
Natick, MA January 22, 2025
To all radio amateurs


These element sets describe the orbits of various satellites 
in use by the amateur radio community. For details see:
www.amsat.org/keplerian-elements-formats/

A daily update of element sets is available at:
www.amsat.org/tle/daily-bulletin.txt
or without bulletin text:
www.amsat.org/tle/dailytle.txt


AO-07
1 07530U 74089B   25021.56933779 -.00000019  00000-0  17144-3 0  9993
2 07530 101.9919  24.3618 0012297  28.4549  87.7943 12.53685225296402
UO-11
1 14781U 84021B   25021.83361379  .00003640  00000-0  39701-3 0  9992
2 14781  97.7357 351.1850 0009492  77.7165 282.5115 14.88524698201991
AO-27
1 22825U 93061C   25021.61128556  .00000331  00000-0  14369-3 0  9995
2 22825  98.7590  82.3443 0008887 153.9207 206.2425 14.30712148633847
FO-29
1 24278U 96046B   25021.60476540  .00000041  00000-0  79897-4 0  9999
2 24278  98.5885 293.6918 0349796 342.7367  16.2117 13.53232946403975
NOAA-15
1 25338U 98030A   25021.83226540  .00000413  00000-0  18797-3 0  9994
2 25338  98.5503  50.2083 0011013  49.7195 310.4947 14.26862321388611
GO-32
1 25397U 98043D   25021.87741364  .00000309  00000-0  15422-3 0  9999
2 25397  98.9533 358.2344 0000465 202.3563 157.7595 14.24238483378769
ISS
1 25544U 98067A   25021.88952125  .00026853  00000-0  47087-3 0  9993
2 25544  51.6377 311.7074 0002210 120.3655 239.7552 15.50360155492471
NO-44
1 26931U 01043C   25021.62602642  .00000610  00000-0  25986-3 0  9997
2 26931  67.0513 127.0737 0006218 261.8480  98.1917 14.31590908217216
SO-50
1 27607U 02058C   25021.13761788  .00003837  00000-0  50797-3 0  9990
2 27607  64.5541 270.7096 0039343  10.5014 349.6904 14.80803346188574
CO-55
1 27844U 03031E   25021.61677103  .00000905  00000-0  41504-3 0  9994
2 27844  98.6784  31.6849 0008869 226.7729 133.2709 14.23777166118869
CO-57
1 27848U 03031J   25021.57189821  .00000763  00000-0  35693-3 0  9992
2 27848  98.6812  31.7481 0008581 245.3467 114.6818 14.23143916118599
RS-22
1 27939U 03042A   25021.80890002  .00003040  00000-0  49638-3 0  9996
2 27939  98.3105 188.0833 0012673  89.3897  18.1857 14.71622969140419
NOAA-18
1 28654U 05018A   25021.81671291  .00000430  00000-0  25193-3 0  9994
2 28654  98.8557 102.8031 0014659 160.2905 199.8836 14.13493172 14141
CO-58
1 28895U 05043F   25021.37263914  .00004521  00000-0  76132-3 0  9993
2 28895  98.2258 164.2648 0015414  31.3359 328.8762 14.69967115 26483
CO-65
1 32785U 08021C   25021.48432620  .00011017  00000-0  85051-3 0  9997
2 32785  97.7673 352.0356 0008891 339.1417  20.9443 15.01702431908186
AAUSAT2
1 32788U 08021F   25021.52061810  .00094927  00000-0  21194-2 0  9992
2 32788  97.6059  12.0649 0007135 103.7735 256.4306 15.43161139911663
CO-66
1 32791U 08021J   25021.50752880  .00021917  00000-0  12450-2 0  9992
2 32791  97.7152 359.1340 0002321 304.2733  55.8277 15.12926752909428
RS-30
1 32953U 08025A   25021.81657764  .00000041  00000-0  22138-3 0  9995
2 32953  82.5060 313.4991 0019738 351.3887   8.6851 12.43157658756297
NOAA-19
1 33591U 09005A   25021.80066820  .00000358  00000-0  21513-3 0  9996
2 33591  99.0185  85.6153 0014246  39.2375 320.9827 14.13265133822506
SRMSAT
1 37841U 11058D   25021.81424650  .00000667  00000-0  21904-3 0  9996
2 37841  19.9720 274.2328 0011669 338.9121  79.7707 14.11342228685702
ZACUBE-1
1 39417U 13066B   25021.41946336  .00010309  00000-0  94851-3 0  9999
2 39417  97.7625 339.5669 0047133 154.3110 206.0466 14.94090528604114
Delfi-N3xt
1 39428U 13066N   25021.32025372  .00014876  00000-0  16282-2 0  9993
2 39428  97.8377 300.8534 0092141  97.7763 263.3924 14.84791330598380
GOMX-1
1 39430U 13066Q   25021.56493599  .00005616  00000-0  89378-3 0  9991
2 39430  97.7014 248.6804 0133499 277.2412  81.3634 14.66561131595025
LO-74
1 39440U 13066AA  25021.43495666  .00010402  00000-0  11046-2 0  9990
2 39440  97.8356 327.2963 0063004 279.0584  80.3506 14.87748228600739
AO-73
1 39444U 13066AE  25021.45566906  .00013563  00000-0  11126-2 0  9992
2 39444  97.7493 343.5226 0044071 129.9513 230.5594 14.98580177602721
DTUSAT-2
1 40030U 14033W   25021.82279442  .00013791  00000-0  98118-3 0  9997
2 40030  98.0400 347.4290 0010526 156.3889 203.7821 15.04731107576014
EO-80
1 40032U 14033Y   25021.45183117  .00015839  00000-0  11242-2 0  9998
2 40032  98.0274 346.8836 0010663 107.1044 253.1350 15.04783300575425
XW-2C
1 40906U 15049H   25021.74890143  .00344993  00000-0  12853-2 0  9997
2 40906  97.4453  54.9666 0003148 177.8979 182.2306 15.87150773518496
LILACSAT-2
1 40908U 15049K   25021.84120659  .00018821  00000-0  57254-3 0  9991
2 40908  97.5179  39.2263 0008717 303.9772  56.0641 15.34037345516920
IO-86
1 40931U 15052B   25020.20147130  .00001860  00000-0  16130-3 0  9996
2 40931   5.9986 241.3177 0013325 280.8560  79.0069 14.78521742503622
Horyu-4
1 41340U 16012D   25021.24817727  .00033433  00000-0  11783-2 0  9998
2 41340  30.9995 343.0030 0005749  47.4389 312.6739 15.28076846491396
Lapan A3
1 41603U 16040E   25021.76814547  .00006757  00000-0  24787-3 0  9993
2 41603  97.1396  31.9611 0012879  50.9946 309.2439 15.28198182476576
CAS-2T
1 41847U 16066G   25021.81147057  .00003561  00000-0  52033-3 0  9997
2 41847  98.4363  97.4505 0347859 237.9732 118.7227 14.42752331431006
CAS-4B
1 42759U 17034B   25021.55588159  .00050126  00000-0  10340-2 0  9992
2 42759  43.0132  58.7475 0014592  38.2347 321.9543 15.45003545420977
CAS-4A
1 42761U 17034D   25021.52779441  .00051544  00000-0  10479-2 0  9996
2 42761  43.0168  56.9402 0015626  46.1149 314.0997 15.45401368420988
TechnoSat
1 42829U 17042E   25021.51342085  .00007202  00000-0  58185-3 0  9998
2 42829  97.3932 196.9817 0013881  52.3244 307.9236 15.00023257409864
AO-91
1 43017U 17073E   25021.58487951  .00018592  00000-0  10181-2 0  9998
2 43017  97.5474 256.0007 0184400 279.8785  78.1667 15.00824797388339
S-Net D
1 43186U 18014G   25021.60257042  .00011585  00000-0  72910-3 0  9994
2 43186  97.5749 286.0590 0009448 352.7343   7.3747 15.09315876381394
S-Net B
1 43187U 18014H   25021.60639073  .00011704  00000-0  73679-3 0  9999
2 43187  97.5754 286.0271 0010104 347.0065  13.0902 15.09300687381397
S-Net A
1 43188U 18014J   25021.27189969  .00011879  00000-0  74752-3 0  9993
2 43188  97.5764 285.8298 0010017 349.1348  10.9663 15.09311834381346
S-Net C
1 43189U 18014K   25021.60849693  .00011690  00000-0  73570-3 0  9996
2 43189  97.5776 286.1524 0011365 338.9336  21.1423 15.09298130379940
Ten-Koh
1 43677U 18084G   25021.43998379  .00006181  00000-0  51297-3 0  9993
2 43677  98.0814 188.2400 0013385  10.9464 349.2046 14.99103774339385
PO-101
1 43678U 18084H   25021.89876217  .00003695  00000-0  32507-3 0  9990
2 43678  98.0908 192.9258 0009721  34.7126 325.4727 14.97143108339623
QO-100
1 43700U 18090A   25021.32866639  .00000162  00000-0  00000-0 0  9994
2 43700   0.0195 296.5267 0001189  13.0247 315.5199  1.00273037 22543
MinXSS-2
1 43758U 18099A   25021.13676932  .00028403  00000-0  13539-2 0  9991
2 43758  97.5237  87.2327 0012615 287.1122  72.8730 15.18997078335754
AO-95
1 43770U 18099N   25021.11709403  .00019094  00000-0  10817-2 0  9995
2 43770  97.5147  80.9824 0011511 341.4382  18.6428 15.12997773335439
RANGE-A
1 43773U 18099R   25021.59360459  .00009637  00000-0  64996-3 0  9994
2 43773  97.4721  74.0650 0010607 315.1065  44.9304 15.06799745335270
MOVE-II
1 43780U 18099Y   25021.42193726  .00077382  00000-0  20328-2 0  9997
2 43780  97.4886  91.0786 0003889 294.3827  65.7012 15.38315637336195
SNUSat 2
1 43782U 18099AA  25021.39034105  .00014022  00000-0  83977-3 0  9992
2 43782  97.4832  79.0659 0011605 275.8313  84.1594 15.11058254335450
SnugLite
1 43784U 18099AC  25021.37395797  .00018440  00000-0  10379-2 0  9992
2 43784  97.4648  78.3976 0002622 286.9931  73.1012 15.13288475335555
ITASat 1
1 43786U 18099AE  25021.39580592  .00012499  00000-0  77342-3 0  9997
2 43786  97.4799  78.9418 0014636 331.2597  28.7824 15.09863566335430
EAGLET 1
1 43790U 18099AJ  25021.61441819  .00008735  00000-0  58700-3 0  9990
2 43790  97.5000  79.4791 0011373 311.0545  48.9700 15.06957987335126
ESEO
1 43792U 18099AL  25021.58311291  .00003510  00000-0  27464-3 0  9997
2 43792  97.4707  74.4819 0007767 263.4223  96.6117 15.01648389334952
CSIM
1 43793U 18099AM  25021.14688542  .00086158  00000-0  22792-2 0  9993
2 43793  97.5055  92.7194 0007632 265.5433  94.4940 15.38040918335995
JO-97
1 43803U 18099AX  25021.67376185  .00018727  00000-0  98427-3 0  9996
2 43803  97.4896  82.3184 0006982 270.1547  89.8886 15.15710467335690
Suomi 100
1 43804U 18099AY  25021.10108238  .00020020  00000-0  11026-2 0  9995
2 43804  97.4964  81.3670 0012292 273.4341  86.5485 15.13989803335560
ISAT
1 43879U 18111D   25021.55560533  .00030715  00000-0  13504-2 0  9996
2 43879  97.6050 293.6306 0009797 338.4381  21.6441 15.21793573332493
UWE-4
1 43880U 18111E   25021.63592401  .00026185  00000-0  12357-2 0  9997
2 43880  97.5984 292.9959 0013507 344.7484  15.3341 15.19353791332483
Sparrow
1 43881U 18111F   25021.56593886  .00032079  00000-0  13763-2 0  9999
2 43881  97.6168 296.0517 0009144  19.8664 340.2926 15.22622394332577
Prox-1
1 44339U 19036A   25021.04523851  .00022322  00000-0  31917-2 0  9994
2 44339  23.9977 255.2315 0007827 288.4954  71.4691 14.75145860297354
SONATE
1 44400U 19038Q   25021.61876095  .00071696  00000-0  10485-2 0  9994
2 44400  97.7114  34.5336 0012510  50.3167 309.9188 15.55287958307764
